EW4694 Weather Reports


Display with metric or nautical units.
time (UTC)temp
F
wind
direction
speed
MPH
gust
MPH
rain 1hr
in
rain 24hr
in
rain mn
in
humidity
%
barometer
mb
20260504081538 46 173 0.0 0.0 0.00 0.00 0.00 55 1015.7
20260504050022 44 275 0.0 0.0 0.00 0.00 0.00 50 1016.4
20260504044520 45 275 0.0 0.0 0.00 0.00 0.00 52 1016.4
20260504043001 45 275 0.0 0.0 0.00 0.00 0.00 54 1016.4
20260504041601 46 275 0.0 0.0 0.00 0.00 0.00 54 1016.4
20260504040100 46 275 0.0 0.0 0.00 0.00 0.00 57 1016.4
20260504034540 45 275 0.0 0.0 0.00 0.00 0.00 56 1016.5
20260504033021 45 275 0.0 0.0 0.00 0.00 0.00 56 1016.4
20260504031514 45 275 0.0 0.0 0.00 0.00 0.00 54 1016.5
20260504030051 45 275 0.0 0.0 0.00 0.00 0.00 57 1016.5
20260504024549 45 275 0.0 0.0 0.00 0.00 0.00 56 1016.6
20260504023025 45 275 0.0 0.0 0.00 0.00 0.00 53 1016.7
20260504021521 46 275 0.0 0.0 0.00 0.00 0.00 61 1016.6
20260504014605 47 275 0.0 0.0 0.00 0.00 0.00 63 1016.5
20260504013034 47 275 0.0 0.0 0.00 0.00 0.00 66 1016.5
20260504011529 48 275 0.0 0.0 0.00 0.00 0.00 67 1016.5
20260504010007 49 275 0.0 0.0 0.00 0.00 0.00 67 1016.6
20260504004503 51 275 0.0 0.0 0.00 0.00 0.00 65 1016.2
20260504003054 52 275 0.0 0.0 0.00 0.00 0.00 63 1016.1
20260504001546 54 275 0.0 0.0 0.00 0.00 0.00 53 1016.2
20260504000017 55 275 0.0 0.0 0.00 0.00 0.00 46 1016.2
20260503234513 56 275 0.0 0.0 0.00 0.00 0.00 42 1016.2
20260503233051 57 275 0.0 0.0 0.00 0.00 0.00 41 1016.3
20260503231548 58 292 0.0 0.0 0.00 0.00 0.00 41 1016.3
20260503230034 59 281 0.0 0.0 0.00 0.00 0.00 36 1016.4
20260503224527 59 279 0.0 0.0 0.00 0.00 0.00 37 1016.4
20260503223023 59 302 0.0 0.0 0.00 0.00 0.00 37 1016.4
20260503221518 59 259 0.0 0.0 0.00 0.00 0.00 37 1016.6
20260503220013 59 282 0.0 0.0 0.00 0.00 0.00 38 1016.5
20260503214508 60 269 0.0 0.0 0.00 0.00 0.00 36 1016.4
20260503213003 59 279 0.0 0.0 0.00 0.00 0.00 39 1016.5
20260503211559 59 278 0.0 0.0 0.00 0.00 0.00 38 1016.6
20260503210039 59 251 0.0 0.0 0.00 0.00 0.00 34 1016.7
20260503204539 60 294 0.0 0.0 0.00 0.00 0.00 39 1016.8
20260503203015 59 261 0.0 0.0 0.00 0.00 0.00 36 1017.1
20260503201509 59 249 0.0 0.0 0.00 0.00 0.00 39 1017.2
20260503200051 58 314 0.0 0.0 0.00 0.00 0.00 39 1017.4
20260503194543 58 283 0.0 0.0 0.00 0.00 0.00 39 1018.0
20260503193036 58 269 0.0 0.0 0.00 0.00 0.00 38 1018.0
20260503191517 58 269 0.0 0.0 0.00 0.00 0.00 38 1018.3
20260503190106 57 241 0.0 1.0 0.00 0.00 0.00 38 1018.5
20260503184557 57 312 0.0 0.0 0.00 0.00 0.00 42 1018.6
20260503183108 57 315 0.0 0.0 0.00 0.00 0.00 45 1018.8
20260503181614 56 305 0.0 0.0 0.00 0.00 0.00 39 1019.0
20260503180044 56 309 0.0 1.0 0.00 0.00 0.00 39 1019.3
20260503174541 56 288 0.0 0.0 0.00 0.00 0.00 43 1019.3
20260503173034 56 298 0.0 1.0 0.00 0.00 0.00 43 1019.4
20260503171529 55 317 0.0 0.0 0.00 0.00 0.00 45 1019.7